Evenes, Norway

4:15 PM CEST on October 20, 2017 (GMT +0200)
Evenes

Weather History for ENEV - October, 2017

Change the Weather History Date:

Thursday, October 12, 2017

  Actual Average Record
Temperature  
Mean Temperature 46 °F -  
Max Temperature 50 °F 37 °F 55 °F (2000)
Min Temperature 43 °F 29 °F 24 °F (2014)
Degree Days  
Heating Degree Days 18    
Moisture  
Dew Point 31 °F    
Average Humidity 49    
Maximum Humidity 61    
Minimum Humidity 36    
Precipitation  
Precipitation 0.00 in - - ()
Sea Level Pressure  
Sea Level Pressure 29.57 in    
Wind  
Wind Speed 12 mph ()    
Max Wind Speed 20 mph    
Max Gust Speed 26 mph    
Visibility 6.2 miles    
Events      
Averages and records for this station are not official NWS values.
T = Trace of Precipitation, MM = Missing Value Source: Averaged Metar Reports

Daily Weather History Graph

Daily Weather History Graph

Search for Another Location

Airport or City:

Trip Planner

Search our weather history database for the weather conditions in past years. The results will help you decide how hot, cold, wet, or windy it might be!

Date:

Astronomy

Oct. 12, 2017 Rise Set
Actual Time 7:48 AM CEST 5:29 PM CEST
Civil Twilight 6:50 AM CEST 6:27 PM CEST
Nautical Twilight 5:44 AM CEST 7:33 PM CEST
Astronomical Twilight 4:34 AM CEST 8:42 PM CEST
Moon 9:05 PM CEST (10/12) 4:59 PM CEST (10/12)
Length of Visible Light 11h 37m
Length of Day
9h 41m
Waning Gibbous, 51% of the Moon is Illuminated
Oct 12
Waning Gibbous
Oct 12
Last Quarter
Oct 19
New
Oct 28
First Quarter
Nov 4
Full

Hourly Weather History & Observations

Time (CEST) Temp. Windchill Dew Point Humidity Pressure Visibility Wind Dir Wind Speed Gust Speed Precip Events Conditions
12:00 AM 45 °F - 31 °F 47% 29.52 in - ESE 20.1 mph - -  
12:20 AM 44.6 °F 36.9 °F 32.0 °F 61% 29.50 in - SE 18.4 mph - N/A   Clear
12:50 AM 44.6 °F 36.6 °F 32.0 °F 61% 29.50 in - SE 19.6 mph - N/A   Clear
1:00 AM 46 °F - 31 °F 45% 29.51 in - SE 20.1 mph - -  
2:00 AM 46 °F - 31 °F 43% 29.51 in - SE 20.1 mph - -  
2:20 AM 46.4 °F 39.5 °F 30.2 °F 53% 29.50 in 6.2 mi SE 17.3 mph - N/A   Unknown
2:50 AM 46.4 °F 40.7 °F 30.2 °F 53% 29.50 in 6.2 mi SE 12.7 mph 26.5 mph N/A   Unknown
3:00 AM 46 °F - 30 °F 42% 29.51 in - ESE 13.4 mph - -  
3:20 AM 46.4 °F 40.7 °F 30.2 °F 53% 29.50 in 6.2 mi ESE 12.7 mph - N/A   Unknown
4:00 AM 47 °F - 30 °F 39% 29.51 in - SE 15.7 mph - -  
5:00 AM 46 °F - 32 °F 45% 29.50 in - SE 13.4 mph - -  
5:20 AM 46.4 °F 43.5 °F 32.0 °F 57% 29.47 in 6.2 mi ESE 5.8 mph - N/A   Unknown
5:50 AM 46.4 °F 41.5 °F 30.2 °F 53% 29.47 in - ESE 10.4 mph - N/A   Clear
6:50 AM 46.4 °F 42.9 °F 30.2 °F 53% 29.50 in - Variable 6.9 mph - N/A   Clear
7:00 AM 46 °F - 31 °F 44% 29.52 in - NNE 2.2 mph - -  
7:50 AM 46.4 °F 41.1 °F 30.2 °F 53% 29.50 in - SE 11.5 mph - N/A   Mostly Cloudy
8:00 AM 47 °F - 30 °F 40% 29.52 in - SE 8.9 mph - -  
8:50 AM 48.2 °F - 30.2 °F 50% 29.50 in 6.2 mi ESE 13.8 mph - N/A   Mostly Cloudy
9:00 AM 46 °F - 31 °F 44% 29.52 in - ESE 15.7 mph - -  
9:50 AM 46.4 °F 41.1 °F 32.0 °F 57% 29.50 in 6.2 mi SE 11.5 mph - N/A   Mostly Cloudy
10:00 AM 48 °F - 30 °F 37%  in - SSE 11.2 mph - -  
10:50 AM 48.2 °F - 30.2 °F 50% 29.53 in 6.2 mi SSW 15.0 mph - N/A   Mostly Cloudy
11:00 AM 48 °F - 32 °F 42% 29.54 in - SSW 13.4 mph - -  
11:50 AM 48.2 °F - 32.0 °F 54% 29.53 in 6.2 mi South 11.5 mph - N/A   Mostly Cloudy
12:00 PM 49 °F - 31 °F 37% 29.55 in - South 8.9 mph - -  
12:50 PM 50.0 °F - 32.0 °F 50% 29.53 in 6.2 mi SSE 3.5 mph - N/A   Mostly Cloudy
1:00 PM 50 °F - 32 °F 38% 29.56 in - South 6.7 mph - -  
1:50 PM 50.0 °F - 32.0 °F 50% 29.56 in 6.2 mi South 8.1 mph - N/A   Mostly Cloudy
2:00 PM 50 °F - 31 °F 36% 29.57 in - SE 6.7 mph - -  
2:20 PM 50.0 °F - 32.0 °F 50% 29.56 in 6.2 mi SSE 8.1 mph - N/A   Mostly Cloudy
2:50 PM 50.0 °F - 32.0 °F 50% 29.56 in 6.2 mi SE 4.6 mph - N/A   Mostly Cloudy
3:00 PM 49 °F - 32 °F 40% 29.59 in - SSE 4.5 mph - -  
3:50 PM 48.2 °F - 33.8 °F 58% 29.59 in 6.2 mi South 5.8 mph - N/A   Mostly Cloudy
4:00 PM 49 °F - 32 °F 39% 29.60 in - South 6.7 mph - -  
4:50 PM 48.2 °F - 32.0 °F 54% 29.59 in 6.2 mi SSE 3.5 mph - N/A   Mostly Cloudy
5:00 PM 48 °F - 33 °F 44% 29.62 in - ESE 4.5 mph - -  
5:50 PM 48.2 °F - 32.0 °F 54% 29.62 in 6.2 mi ESE 10.4 mph - N/A   Mostly Cloudy
6:00 PM 47 °F - 32 °F 44% 29.64 in - ESE 11.2 mph - -  
6:50 PM 46.4 °F 41.5 °F 32.0 °F 57% 29.62 in 6.2 mi SE 10.4 mph - N/A   Mostly Cloudy
7:00 PM 46 °F - 31 °F 44% 29.66 in - ESE 11.2 mph - -  
7:50 PM 46.4 °F 40.7 °F 32.0 °F 57% 29.65 in 6.2 mi ESE 12.7 mph - N/A   Overcast
8:00 PM 45 °F - 31 °F 47% 29.68 in - ESE 13.4 mph - -  
8:50 PM 44.6 °F 38.4 °F 32.0 °F 61% 29.68 in 6.2 mi ESE 12.7 mph - N/A   Overcast
9:00 PM 45 °F - 31 °F 47% 29.69 in - ESE 11.2 mph - -  
9:50 PM 44.6 °F 38.4 °F 30.2 °F 57% 29.68 in 6.2 mi ESE 12.7 mph - N/A   Overcast
10:00 PM 45 °F - 31 °F 46% 29.71 in - ESE 13.4 mph - -  
10:50 PM 44.6 °F 38.4 °F 30.2 °F 57% 29.71 in 6.2 mi ESE 12.7 mph - N/A   Overcast
11:00 PM 44 °F - 31 °F 49% 29.73 in - ESE 13.4 mph - -  
11:50 PM 44.6 °F 38.4 °F 30.2 °F 57% 29.71 in 6.2 mi ESE 12.7 mph - N/A   Overcast